TimeEDT,TemperatureF,Dew PointF,Humidity,Sea Level PressureIn,VisibilityMPH,Wind Direction,Wind SpeedMPH,Gust SpeedMPH,PrecipitationIn,Events,Conditions,WindDirDegrees,DateUTC
12:14 AM,53.6,41.0,62,30.07,10.0,NNE,8.1,-,N/A,,Overcast,30,2013-09-23 04:14:00
12:34 AM,53.6,41.0,62,30.07,10.0,NNE,6.9,-,N/A,,Overcast,20,2013-09-23 04:34:00
12:54 AM,53.6,42.8,67,30.07,10.0,NE,6.9,-,N/A,,Overcast,50,2013-09-23 04:54:00
1:14 AM,53.6,44.6,72,30.08,10.0,NE,9.2,-,N/A,,Overcast,50,2013-09-23 05:14:00
1:34 AM,53.6,44.6,72,30.08,10.0,NNE,9.2,-,N/A,,Mostly Cloudy,30,2013-09-23 05:34:00
1:54 AM,51.8,44.6,76,30.09,10.0,ENE,10.4,-,N/A,,Scattered Clouds,70,2013-09-23 05:54:00
2:14 AM,50.0,44.6,82,30.09,10.0,NE,9.2,-,N/A,,Clear,50,2013-09-23 06:14:00
2:34 AM,50.0,44.6,82,30.09,10.0,NE,8.1,-,N/A,,Scattered Clouds,50,2013-09-23 06:34:00
2:54 AM,50.0,44.6,82,30.09,10.0,NE,9.2,-,N/A,,Scattered Clouds,40,2013-09-23 06:54:00
3:14 AM,50.0,44.6,82,30.09,10.0,NE,8.1,-,N/A,,Mostly Cloudy,50,2013-09-23 07:14:00
3:34 AM,48.2,44.6,87,30.09,10.0,NE,8.1,-,N/A,,Mostly Cloudy,50,2013-09-23 07:34:00
3:54 AM,50.0,44.6,82,30.09,10.0,NE,9.2,-,N/A,,Scattered Clouds,50,2013-09-23 07:54:00
4:14 AM,48.2,44.6,87,30.09,10.0,NE,6.9,-,N/A,,Scattered Clouds,50,2013-09-23 08:14:00
4:34 AM,48.2,44.6,87,30.09,10.0,ENE,6.9,-,N/A,,Scattered Clouds,60,2013-09-23 08:34:00
4:54 AM,48.2,44.6,87,30.10,10.0,ENE,5.8,-,N/A,,Scattered Clouds,60,2013-09-23 08:54:00
5:14 AM,48.2,44.6,87,30.10,10.0,NE,6.9,-,N/A,,Overcast,50,2013-09-23 09:14:00
5:34 AM,48.2,44.6,87,30.11,10.0,NE,5.8,-,N/A,,Overcast,50,2013-09-23 09:34:00
5:54 AM,48.2,42.8,82,30.11,10.0,NE,6.9,-,N/A,,Overcast,50,2013-09-23 09:54:00
6:14 AM,48.2,42.8,82,30.12,10.0,NE,5.8,-,N/A,,Overcast,50,2013-09-23 10:14:00
6:34 AM,48.2,42.8,82,30.12,10.0,ENE,5.8,-,N/A,,Overcast,70,2013-09-23 10:34:00
6:54 AM,48.2,42.8,82,30.12,10.0,ENE,8.1,-,N/A,,Scattered Clouds,70,2013-09-23 10:54:00
7:14 AM,48.2,42.8,82,30.13,10.0,ENE,8.1,-,N/A,,Scattered Clouds,60,2013-09-23 11:14:00
7:34 AM,48.2,42.8,82,30.14,10.0,ENE,5.8,-,N/A,,Scattered Clouds,60,2013-09-23 11:34:00
7:54 AM,48.2,42.8,82,30.15,10.0,NE,3.5,-,N/A,,Mostly Cloudy,50,2013-09-23 11:54:00
8:14 AM,50.0,42.8,76,30.15,10.0,ENE,6.9,-,N/A,,Overcast,60,2013-09-23 12:14:00
8:34 AM,51.8,41.0,67,30.16,10.0,NE,6.9,-,N/A,,Scattered Clouds,50,2013-09-23 12:34:00
8:54 AM,51.8,42.8,71,30.16,10.0,NE,5.8,-,N/A,,Clear,50,2013-09-23 12:54:00
9:14 AM,53.6,42.8,67,30.17,10.0,ENE,8.1,-,N/A,,Scattered Clouds,60,2013-09-23 13:14:00
9:34 AM,53.6,42.8,67,30.17,10.0,NE,9.2,-,N/A,,Mostly Cloudy,50,2013-09-23 13:34:00
9:54 AM,55.4,42.8,63,30.18,10.0,NE,6.9,-,N/A,,Overcast,40,2013-09-23 13:54:00
10:14 AM,55.4,42.8,63,30.18,10.0,NE,6.9,-,N/A,,Overcast,40,2013-09-23 14:14:00
10:34 AM,55.4,42.8,63,30.18,10.0,East,3.5,-,N/A,,Overcast,80,2013-09-23 14:34:00
10:54 AM,55.4,42.8,63,30.18,10.0,East,3.5,-,N/A,,Overcast,80,2013-09-23 14:54:00
11:14 AM,55.4,41.0,58,30.19,10.0,NE,5.8,-,N/A,,Overcast,50,2013-09-23 15:14:00
11:34 AM,57.2,41.0,55,30.18,10.0,NE,5.8,-,N/A,,Overcast,40,2013-09-23 15:34:00
11:54 AM,57.2,39.2,51,30.18,10.0,ENE,6.9,-,N/A,,Overcast,60,2013-09-23 15:54:00
12:14 PM,57.2,39.2,51,30.18,10.0,Calm,Calm,-,N/A,,Overcast,0,2013-09-23 16:14:00
12:34 PM,57.2,39.2,51,30.18,10.0,NE,3.5,-,N/A,,Mostly Cloudy,40,2013-09-23 16:34:00
12:54 PM,59.0,39.2,48,30.17,10.0,NNW,3.5,-,N/A,,Scattered Clouds,330,2013-09-23 16:54:00
1:14 PM,60.8,41.0,48,30.17,10.0,ENE,5.8,-,N/A,,Scattered Clouds,60,2013-09-23 17:14:00
1:34 PM,60.8,39.2,45,30.17,10.0,North,5.8,-,N/A,,Scattered Clouds,350,2013-09-23 17:34:00
1:54 PM,60.8,39.2,45,30.17,10.0,ENE,6.9,-,N/A,,Scattered Clouds,60,2013-09-23 17:54:00
2:14 PM,60.8,39.2,45,30.16,10.0,North,9.2,-,N/A,,Clear,360,2013-09-23 18:14:00
2:34 PM,60.8,41.0,48,30.16,10.0,NW,3.5,-,N/A,,Clear,320,2013-09-23 18:34:00
2:54 PM,62.6,42.8,48,30.16,10.0,Calm,Calm,-,N/A,,Clear,0,2013-09-23 18:54:00
3:14 PM,62.6,42.8,48,30.15,10.0,NNE,4.6,-,N/A,,Clear,30,2013-09-23 19:14:00
3:34 PM,60.8,42.8,52,30.15,10.0,NE,3.5,-,N/A,,Scattered Clouds,50,2013-09-23 19:34:00
3:54 PM,60.8,42.8,52,30.14,10.0,South,4.6,-,N/A,,Clear,180,2013-09-23 19:54:00
4:14 PM,60.8,42.8,52,30.14,10.0,South,4.6,-,N/A,,Clear,170,2013-09-23 20:14:00
4:34 PM,60.8,44.6,55,30.14,10.0,South,6.9,-,N/A,,Clear,170,2013-09-23 20:34:00
4:54 PM,60.8,44.6,55,30.14,10.0,SSW,5.8,-,N/A,,Clear,200,2013-09-23 20:54:00
5:14 PM,60.8,44.6,55,30.14,10.0,SSW,5.8,-,N/A,,Clear,200,2013-09-23 21:14:00
5:34 PM,60.8,46.4,59,30.14,10.0,SSE,5.8,-,N/A,,Clear,160,2013-09-23 21:34:00
5:54 PM,60.8,46.4,59,30.14,10.0,South,5.8,-,N/A,,Clear,170,2013-09-23 21:54:00
6:14 PM,60.8,46.4,59,30.13,10.0,South,5.8,-,N/A,,Clear,190,2013-09-23 22:14:00
6:34 PM,59.0,46.4,63,30.13,10.0,South,3.5,-,N/A,,Clear,170,2013-09-23 22:34:00
6:54 PM,59.0,46.4,63,30.13,10.0,South,4.6,-,N/A,,Clear,180,2013-09-23 22:54:00
7:14 PM,57.2,46.4,67,30.13,10.0,SSE,3.5,-,N/A,,Clear,150,2013-09-23 23:14:00
7:34 PM,57.2,46.4,67,30.12,10.0,ESE,3.5,-,N/A,,Scattered Clouds,110,2013-09-23 23:34:00
7:54 PM,57.2,46.4,67,30.12,10.0,East,3.5,-,N/A,,Mostly Cloudy,100,2013-09-23 23:54:00
8:14 PM,57.2,46.4,67,30.12,10.0,East,3.5,-,N/A,,Scattered Clouds,90,2013-09-24 00:14:00
8:34 PM,55.4,46.4,72,30.13,10.0,East,3.5,-,N/A,,Clear,90,2013-09-24 00:34:00
8:54 PM,55.4,46.4,72,30.13,10.0,Calm,Calm,-,N/A,,Clear,0,2013-09-24 00:54:00
9:14 PM,55.4,46.4,72,30.13,10.0,Calm,Calm,-,N/A,,Clear,0,2013-09-24 01:14:00
9:34 PM,53.6,46.4,77,30.13,10.0,Calm,Calm,-,N/A,,Clear,0,2013-09-24 01:34:00
9:54 PM,51.8,46.4,82,30.13,10.0,Calm,Calm,-,N/A,,Clear,0,2013-09-24 01:54:00
10:14 PM,53.6,46.4,77,30.13,10.0,Calm,Calm,-,N/A,,Clear,0,2013-09-24 02:14:00
10:34 PM,51.8,46.4,82,30.14,10.0,Calm,Calm,-,N/A,,Clear,0,2013-09-24 02:34:00
10:54 PM,51.8,46.4,82,30.13,7.0,ENE,3.5,-,N/A,,Clear,60,2013-09-24 02:54:00
11:14 PM,53.6,46.4,77,30.14,10.0,ENE,3.5,-,N/A,,Clear,70,2013-09-24 03:14:00
11:34 PM,51.8,46.4,82,30.13,10.0,Calm,Calm,-,N/A,,Clear,0,2013-09-24 03:34:00
11:54 PM,51.8,46.4,82,30.13,10.0,Calm,Calm,-,N/A,,Clear,0,2013-09-24 03:54:00